sat.trackr.live / text

‹ back to catalog

STARLINK-36989

NORAD 68277 · 2026-055R

PAYLOAD ACTIVE UNKNOWN

§ Identity

Operator
Country
US
Launch date
2026-03-19
Launch site
AFETR
Launch vehicle
Mass (kg)
RCS (m²)

Purposes: comms

External: N2YO · Heavens-Above · Gunter

§ Orbital elements

Epoch: 2026-05-24T21:37:00.323616Z

Period
93.85 min
Inclination
53.1593°
Eccentricity
0.0000940
Mean motion
15.34401424 rev/d
Perigee alt
462.1 km
Apogee alt
463.3 km
Semi-major
6,840.8 km
B*
9.1410e-4
RAAN
324.2331°
Arg perigee
70.8812°
Mean anomaly
289.2292°
Rev number
1,161

§ Raw data

STARLINK-369891 68277U 26055R   26144.90069819  .00030636  00000+0  91410-3 0  99922 68277  53.1593 324.2331 0000940  70.8812 289.2292 15.34401424 11616

JSON: /api/v1/satellites/68277 · /tle

For live sub-satellite position, see the globe view (requires WebGL).

§ Visibility from observer

Set your observer location to see the next 7 days of passes ≥ 10°. The values pass through the URL so the page stays shareable.

No JS? Fill the form by hand. The geolocation button needs JavaScript.